DateTimeUTC,F1_A11,F1_S11,BsB_S11,BsG_S11,BsR_S11,BbsB_S11,BbsG_S11,BbsR_S11,BaB_A11,BaG_A11,BaR_A11,Tu_S11,T_S11,Uu_S11,U_S11,P_S11,T1_A11
2021-02-09T00:00:00Z,00000200,21000000,,,,,,,-000.17,0000.01,-000.01,16.1,23.5,,00.0,0654.7,31.0
2021-02-09T00:01:00Z,00000200,21000000,,,,,,,0000.02,0000.03,0000.21,16.1,23.6,,00.0,0654.7,31.0
2021-02-09T00:02:00Z,00000200,21000000,,,,,,,0000.18,0000.38,0000.10,16.1,23.6,,00.0,0654.7,31.0
2021-02-09T00:03:00Z,00000200,61000000,,,,,,,0005.27,0004.37,0003.44,16.1,23.6,,00.0,0654.7,31.0
2021-02-09T00:04:00Z,00000200,41000000,0001.00,0000.60,0000.32,0000.12,0000.19,0000.29,0009.98,0009.08,0006.73,16.2,23.3,,00.0,0655.5,31.0
2021-02-09T00:05:00Z,00000200,01000000,0000.84,0000.46,0000.18,0000.69,0000.22,0000.40,0014.19,0012.41,0009.62,16.2,23.3,,00.0,0655.5,30.9
2021-02-09T00:06:00Z,00000200,01000000,0001.60,0000.63,0000.43,0000.08,0000.08,0000.37,0017.76,0016.02,0012.07,16.3,23.2,,00.0,0655.5,30.9
2021-02-09T00:07:00Z,00000200,01000000,0001.52,0000.75,0000.62,0000.55,0000.49,0000.16,0016.19,0014.71,0011.09,16.3,23.3,,00.0,0655.5,31.0
2021-02-09T00:08:00Z,00000200,01000000,0001.39,0000.61,0000.43,0000.53,0000.17,0000.12,0012.01,0011.56,0008.65,16.4,23.3,,00.0,0655.5,31.0
2021-02-09T00:09:00Z,00000200,01000000,0001.21,0000.55,0000.39,-000.10,0000.21,0000.31,0012.31,0010.89,0008.51,16.5,23.3,,00.0,0655.5,31.0
2021-02-09T00:10:00Z,00000200,01000000,0000.76,0000.44,0000.11,0000.52,0000.52,0000.17,0010.99,0009.76,0007.40,16.5,23.3,,00.0,0655.5,31.0
2021-02-09T00:11:00Z,00000200,01000000,0001.57,0000.32,0000.54,-000.25,0000.41,0000.25,0011.36,0010.05,0007.73,16.5,23.3,,00.0,0655.5,31.0
2021-02-09T00:12:00Z,00000200,01000000,0001.15,0000.26,0000.49,0000.86,0000.03,0000.17,0008.89,0008.29,0006.01,16.5,23.3,,00.0,0655.5,31.0
2021-02-09T00:13:00Z,00000200,01000000,-000.16,-000.06,0000.44,0000.27,0000.14,0000.27,0005.37,0004.85,0003.80,16.5,23.3,,00.0,0655.5,31.0
2021-02-09T00:14:00Z,00000200,01000000,0000.30,-000.01,0000.27,0000.01,0000.30,0000.24,0005.12,0004.60,0003.46,16.4,23.3,,00.0,0655.5,31.0
2021-02-09T00:15:00Z,00000200,01000000,0000.45,0000.27,0000.48,-000.13,0000.20,0000.06,0005.71,0005.09,0003.91,16.4,23.3,,00.0,0655.5,31.0
2021-02-09T00:16:00Z,00000200,01000000,0001.22,0000.50,0000.37,-000.70,0000.49,0000.26,0010.87,0009.83,0007.38,16.4,23.3,,00.0,0655.5,31.0
2021-02-09T00:17:00Z,00000200,01000000,0000.87,0000.29,0000.48,-000.12,0000.23,0000.54,0009.65,0008.90,0006.64,16.3,23.2,,00.0,0655.5,31.0
2021-02-09T00:18:00Z,00000200,01000000,0001.04,0000.32,0000.36,-000.22,0000.35,0000.17,0006.80,0006.17,0004.77,16.3,23.2,,00.0,0655.5,31.0
2021-02-09T00:19:00Z,00000200,01000000,0000.27,-000.01,0000.36,0000.16,0000.12,0000.01,0003.52,0002.99,0002.45,16.3,23.2,,00.0,0655.5,31.0
2021-02-09T00:20:00Z,00000200,01000000,0000.52,-000.11,0000.10,0000.21,0000.23,0000.26,0001.77,0001.40,0001.30,16.3,23.2,,00.0,0655.5,30.9
2021-02-09T00:21:00Z,00000200,01000000,0000.50,0000.10,0000.03,0000.03,0000.38,0000.28,0001.69,0001.60,0000.88,16.3,23.2,,00.0,0655.5,30.9
2021-02-09T00:22:00Z,00000200,01000000,0000.68,0000.11,0000.40,-000.37,0000.34,0000.25,0001.85,0001.90,0001.52,16.4,23.2,,00.0,0655.5,31.0
2021-02-09T00:23:00Z,00000200,01000000,0000.38,0000.21,0000.18,0000.38,0000.39,0000.08,0002.79,0002.63,0001.90,16.5,23.3,,00.0,0655.5,31.0
2021-02-09T00:24:00Z,00000200,01000000,0000.74,0000.43,0000.44,0000.11,0000.24,0000.08,0005.40,0004.47,0003.48,16.5,23.3,,00.0,0655.5,31.0
2021-02-09T00:25:00Z,00000200,01000000,0000.50,0000.50,0000.09,-000.06,0000.57,0000.19,0005.06,0005.22,0003.77,16.6,23.3,,00.0,0655.5,31.0
2021-02-09T00:26:00Z,00000200,01000000,0000.26,0000.32,0000.39,0000.57,0000.23,0000.33,0003.20,0002.28,0002.01,16.6,23.3,,00.0,0655.5,31.0
2021-02-09T00:27:00Z,00000200,01000000,0000.82,0000.62,0000.52,0000.90,0000.28,0000.19,0003.08,0003.26,0001.99,16.5,23.3,,00.0,0655.5,31.0
2021-02-09T00:28:00Z,00000200,01000000,0000.47,0000.37,0000.74,0000.92,0000.25,0000.37,0003.57,0003.03,0002.41,16.5,23.3,,00.0,0655.5,31.0
2021-02-09T00:29:00Z,00000200,01000000,0001.13,0000.46,0000.51,0000.44,0000.23,0000.15,0005.60,0005.10,0004.01,16.5,23.3,,00.0,0655.5,31.0
2021-02-09T00:30:00Z,00000200,01000000,0000.72,0000.40,0000.61,-000.11,0000.30,0000.18,0005.52,0004.73,0003.31,16.4,23.3,,00.0,0655.5,31.0
2021-02-09T00:31:00Z,00000200,01000000,0000.91,0000.75,0000.24,0000.63,0000.04,0000.27,0005.02,0004.51,0003.51,16.4,23.3,,00.0,0655.5,31.0
2021-02-09T00:32:00Z,00000200,01000000,0000.61,0000.59,0000.42,0000.07,0000.36,-000.01,0008.91,0007.85,0006.09,16.4,23.2,,00.0,0655.5,31.0
2021-02-09T00:33:00Z,00000200,01000000,0000.61,0000.34,0000.39,0000.47,0000.26,0000.16,0006.18,0005.73,0003.95,16.3,23.2,,00.0,0655.5,31.0
2021-02-09T00:34:00Z,00000200,01000000,0000.98,0000.51,0000.29,0000.26,0000.11,0000.12,0004.84,0004.40,0003.44,16.3,23.2,,00.0,0655.5,30.9
2021-02-09T00:35:00Z,00000200,01000000,0000.45,0000.27,0000.30,0000.16,0000.20,0000.15,0007.87,0006.87,0005.41,16.3,23.2,,00.0,0655.5,30.9
2021-02-09T00:36:00Z,00000200,01000000,0000.88,-000.04,0000.54,0000.26,0000.12,0000.10,0009.59,0008.62,0006.65,16.3,23.2,,00.0,0655.5,30.9
2021-02-09T00:37:00Z,00000200,01000000,0000.74,0000.32,0000.52,0000.23,0000.30,0000.26,0004.56,0004.03,0003.00,16.4,23.2,,00.0,0655.5,31.0
2021-02-09T00:38:00Z,00000200,01000000,0000.79,0000.32,0000.14,0000.86,0000.43,0000.23,0004.92,0004.79,0003.48,16.5,23.2,,00.0,0655.5,31.0
2021-02-09T00:39:00Z,00000200,01000000,0000.77,0000.14,0000.12,0000.45,0000.20,-000.05,0006.11,0005.78,0004.24,16.5,23.3,,00.0,0655.6,31.0
2021-02-09T00:40:00Z,00000200,01000000,0001.33,0000.41,0000.41,0000.14,0000.01,0000.11,0012.33,0011.26,0008.23,16.6,23.3,,00.0,0655.6,31.0
2021-02-09T00:41:00Z,00000200,01000000,0000.77,0000.59,0000.33,0000.21,0000.03,0000.21,0002.79,0001.79,0001.79,16.6,23.3,,00.0,0655.5,31.0
2021-02-09T00:42:00Z,00000200,01000000,0000.67,0000.20,0000.14,0000.30,0000.28,0000.05,0002.27,0002.38,0001.49,16.6,23.3,,00.0,0655.6,31.0
2021-02-09T00:43:00Z,00000200,01000000,0001.21,0000.67,0000.33,0000.02,0000.07,0000.12,0004.11,0003.77,0002.89,16.6,23.3,,00.0,0655.6,31.0
2021-02-09T00:44:00Z,00000200,01000000,0000.40,0000.52,0000.53,0000.21,0000.53,0000.12,0001.35,0000.93,0000.68,16.6,23.3,,00.0,0655.6,31.0
2021-02-09T00:45:00Z,00000200,01000000,0000.84,0000.36,0000.38,0000.33,0000.18,0000.59,0003.55,0003.20,0002.47,16.5,23.3,,00.0,0655.6,31.0
2021-02-09T00:46:00Z,00000200,01000000,0000.51,0000.55,0000.75,0000.73,0000.27,0000.23,0006.82,0006.38,0004.73,16.5,23.3,,00.0,0655.6,31.0
2021-02-09T00:47:00Z,00000200,01010000,0001.18,0000.59,0000.70,-000.06,0000.23,0000.08,0005.53,0004.70,0003.75,16.5,23.2,,00.0,0655.6,31.0
2021-02-09T00:48:00Z,00000200,01000000,0000.45,0000.18,0000.33,0000.14,0000.01,0000.25,0002.70,0002.27,0001.76,16.4,23.2,,00.0,0655.6,31.0
2021-02-09T00:49:00Z,00000200,01000000,0000.65,0000.67,0000.38,0000.64,0000.08,0000.39,0004.56,0004.27,0003.17,16.4,23.2,,00.0,0655.6,31.0
2021-02-09T00:50:00Z,00000200,01000000,0000.44,0000.62,0000.34,-000.21,0000.02,-000.10,0002.87,0002.69,0001.93,16.4,23.2,,00.0,0655.6,30.9
2021-02-09T00:51:00Z,00000200,01000000,0000.57,0000.22,0000.42,-000.32,0000.39,0000.17,0001.56,0001.21,0001.03,16.4,23.2,,00.0,0655.6,31.0
2021-02-09T00:52:00Z,00000200,01000000,0000.20,0000.06,0000.20,0000.42,0000.15,-000.04,0000.71,0000.76,0000.42,16.5,23.2,,00.0,0655.6,31.0
2021-02-09T00:53:00Z,00000200,01000000,0000.96,0000.31,0000.17,-000.09,0000.37,0000.04,0000.43,0000.47,0000.29,16.5,23.2,,00.0,0655.6,31.0
2021-02-09T00:54:00Z,00000200,01000000,0000.62,0000.57,0000.32,0000.34,0000.19,-000.09,0000.28,0000.21,0000.14,16.6,23.3,,00.0,0655.6,31.0
2021-02-09T00:55:00Z,00000200,01000000,0000.56,0000.40,0000.39,0000.01,0000.20,0000.17,0000.52,0000.45,0000.39,16.7,23.3,,00.0,0655.7,31.0
2021-02-09T00:56:00Z,00000200,01000000,-000.22,0000.47,0000.31,0000.40,0000.11,0000.19,0000.43,-000.04,0000.31,16.7,23.3,,00.0,0655.7,31.0
2021-02-09T00:57:00Z,00000200,41000000,,,,,,,0000.46,0000.85,0000.51,16.7,23.4,,00.0,0655.7,31.0
2021-02-09T00:58:00Z,00000200,61000000,,,,,,,-000.10,-000.01,-000.48,16.3,23.5,,00.0,0654.7,31.0
2021-02-09T00:59:00Z,00000200,21000000,,,,,,,-000.36,-000.27,0000.10,16.3,23.6,,00.0,0654.7,31.0
